Tracking 33446 objects as of 10-Mar-2026
HD Live streaming from Space Station
objects crossing your sky now

STARLINK-35332

Track STARLINK-35332 now!
10-day predictions
STARLINK-35332 is classified as:


NORAD ID: 65887
Int'l Code: 2025-224F
Perigee: 481.7 km
Apogee: 482.9 km
Inclination: 53.2 °
Period: 94.1 minutes
Semi major axis: 6853 km
RCS: Unknown
Launch date: October 7, 2025
Source: United States (US)
Launch site: AIR FORCE EASTERN TEST RANGE (AFETR)
Your satellite tracking list
Your tracking list is empty




NASA's NSSDC Master Catalog

Two Line Element Set (TLE):
1 65887U 25224F   26069.11133439  .00029124  00000-0  99128-3 0  9997
2 65887  53.1602   9.0518 0000880 104.7746 255.3352 15.30210437 24929
Source of the keplerian elements: AFSPC